Lancaster, SC

2:31 PM EST on February 25, 2017 (GMT -0500)
Lancaster County-McWhirter

Weather History for KLKR - December, 2013

Change the Weather History Date:

Sunday, December 8, 2013

  Actual Average (KUZA) Record (KUZA)
Temperature  
Mean Temperature 40 °F -  
Max Temperature 46 °F 55 °F 77 °F (1956)
Min Temperature 35 °F 36 °F 15 °F (2010)
Degree Days  
Heating Degree Days 24    
Moisture  
Dew Point 38 °F    
Average Humidity 94    
Maximum Humidity 100    
Minimum Humidity 71    
Precipitation  
Precipitation 0.03 in - - ()
Sea Level Pressure  
Sea Level Pressure 30.36 in    
Wind  
Wind Speed 6 mph (NE)    
Max Wind Speed 12 mph    
Max Gust Speed -    
Visibility 6 miles    
Events Rain    
Averages and records for this station are not official NWS values.
T = Trace of Precipitation, MM = Missing Value Source: NWS Daily Summary

Daily Weather History Graph

Daily Weather History Graph

Search for Another Location

Airport or City:

Trip Planner

Search our weather history database for the weather conditions in past years. The results will help you decide how hot, cold, wet, or windy it might be!

Date:

Astronomy

Dec. 08, 2013 Rise Set
Actual Time 7:18 AM EST 5:12 PM EST
Civil Twilight 6:50 AM EST 5:40 PM EST
Nautical Twilight 6:19 AM EST 6:11 PM EST
Astronomical Twilight 5:48 AM EST 6:42 PM EST
Moon 11:49 AM EST (12/8) 11:47 PM EST (12/8)
Length of Visible Light 10h 49m
Length of Day
9h 54m
Waxing Crescent, 40% of the Moon is Illuminated
Dec 8
Waxing Crescent
Dec 9
First Quarter
Dec 17
Full
Dec 25
Last Quarter
Jan 1
New

Hourly Weather History & Observations

Time (EST) Temp. Windchill Dew Point Humidity Pressure Visibility Wind Dir Wind Speed Gust Speed Precip Events Conditions
12:15 AM 46.4 °F 41.5 °F 39.2 °F 76% 30.40 in 10.0 mi NE 10.4 mph - N/A   Overcast
12:35 AM 46.4 °F 44.3 °F 39.2 °F 76% 30.39 in 10.0 mi ENE 4.6 mph - N/A   Overcast
12:55 AM 46.4 °F 44.3 °F 39.2 °F 76% 30.38 in 10.0 mi ENE 4.6 mph - N/A   Overcast
1:15 AM 46.4 °F 42.9 °F 39.2 °F 76% 30.38 in 10.0 mi ENE 6.9 mph - N/A   Overcast
1:35 AM 46.4 °F 42.4 °F 39.2 °F 76% 30.38 in 10.0 mi NE 8.1 mph - N/A   Overcast
1:55 AM 44.6 °F 43.1 °F 39.2 °F 81% 30.38 in 10.0 mi ENE 3.5 mph - N/A   Overcast
2:15 AM 44.6 °F 41.4 °F 39.2 °F 81% 30.36 in 10.0 mi ENE 5.8 mph - N/A   Overcast
2:35 AM 44.6 °F 43.1 °F 37.4 °F 76% 30.37 in 10.0 mi East 3.5 mph - N/A   Overcast
2:55 AM 44.6 °F 43.1 °F 37.4 °F 76% 30.36 in 10.0 mi ENE 3.5 mph - N/A   Overcast
3:15 AM 44.6 °F 40.2 °F 37.4 °F 76% 30.36 in 10.0 mi NE 8.1 mph - N/A   Overcast
3:35 AM 44.6 °F 41.4 °F 37.4 °F 76% 30.37 in 10.0 mi ENE 5.8 mph - N/A   Overcast
3:55 AM 44.6 °F 42.2 °F 37.4 °F 76% 30.36 in 10.0 mi ENE 4.6 mph - N/A   Overcast
4:15 AM 44.6 °F 41.4 °F 35.6 °F 71% 30.37 in 10.0 mi ENE 5.8 mph - N/A   Overcast
4:35 AM 42.8 °F 39.3 °F 35.6 °F 76% 30.36 in 10.0 mi NE 5.8 mph - N/A   Overcast
4:55 AM 42.8 °F 39.3 °F 35.6 °F 76% 30.36 in 10.0 mi ENE 5.8 mph - N/A   Overcast
5:15 AM 42.8 °F 39.3 °F 35.6 °F 76% 30.37 in 10.0 mi ENE 5.8 mph - N/A   Overcast
5:35 AM 42.8 °F 39.3 °F 37.4 °F 81% 30.36 in 10.0 mi ENE 5.8 mph - N/A   Overcast
5:55 AM 41.0 °F 37.1 °F 37.4 °F 87% 30.36 in 10.0 mi NE 5.8 mph - N/A   Overcast
6:15 AM 41.0 °F 36.4 °F 37.4 °F 87% 30.38 in 10.0 mi ENE 6.9 mph - N/A   Overcast
6:35 AM 41.0 °F 38.0 °F 39.2 °F 93% 30.37 in 5.0 mi ENE 4.6 mph - N/A   Overcast
6:55 AM 39.2 °F 35.9 °F 39.2 °F 100% 30.38 in 3.0 mi ENE 4.6 mph - N/A   Overcast
7:15 AM 39.2 °F 35.9 °F 39.2 °F 100% 30.39 in 3.0 mi NE 4.6 mph - N/A Rain Light Rain
7:35 AM 39.2 °F 35.9 °F 39.2 °F 100% 30.39 in 3.0 mi NE 4.6 mph - N/A   Overcast
7:55 AM 39.2 °F 33.6 °F 39.2 °F 100% 30.39 in 1.5 mi NNE 8.1 mph - 0.01 in Rain Light Rain
8:15 AM 39.2 °F 34.2 °F 39.2 °F 100% 30.40 in 1.5 mi NE 6.9 mph - N/A Rain Light Rain
8:35 AM 39.2 °F 35.9 °F 39.2 °F 100% 30.39 in 1.5 mi NE 4.6 mph - N/A Rain Light Rain
8:55 AM 39.2 °F 35.0 °F 39.2 °F 100% 30.40 in 1.8 mi NE 5.8 mph - N/A Rain Light Rain
9:15 AM 39.2 °F 35.0 °F 39.2 °F 100% 30.42 in 2.0 mi NNE 5.8 mph - N/A Rain Light Rain
9:35 AM 39.2 °F 37.0 °F 39.2 °F 100% 30.41 in 1.5 mi ENE 3.5 mph - N/A Rain Light Rain
9:55 AM 39.2 °F 37.0 °F 39.2 °F 100% 30.40 in 2.5 mi NE 3.5 mph - N/A   Overcast
10:15 AM 39.2 °F - 39.2 °F 100% 30.40 in 3.0 mi Calm Calm - N/A   Overcast
10:35 AM 39.2 °F 35.9 °F 39.2 °F 100% 30.39 in 5.0 mi ENE 4.6 mph - N/A   Overcast
10:55 AM 39.2 °F 35.0 °F 39.2 °F 100% 30.38 in 3.0 mi NE 5.8 mph - N/A   Overcast
11:15 AM 39.2 °F 33.6 °F 39.2 °F 100% 30.39 in 5.0 mi North 8.1 mph - N/A   Overcast
11:35 AM 37.4 °F 29.8 °F 37.4 °F 100% 30.39 in 3.0 mi NNE 11.5 mph - N/A Rain Light Rain
11:55 AM 37.4 °F 34.9 °F 37.4 °F 100% 30.39 in 2.0 mi NE 3.5 mph - 0.01 in Rain Light Rain
12:15 PM 39.2 °F 35.0 °F 39.2 °F 100% 30.39 in 1.5 mi NE 5.8 mph - N/A   Overcast
12:35 PM 39.2 °F 34.2 °F 39.2 °F 100% 30.38 in 1.2 mi NE 6.9 mph - N/A   Overcast
12:55 PM 37.4 °F 30.8 °F 37.4 °F 100% 30.37 in 1.2 mi NNE 9.2 mph - N/A   Overcast
1:15 PM 37.4 °F 32.8 °F 37.4 °F 100% 30.36 in 1.8 mi NE 5.8 mph - N/A   Overcast
1:35 PM 37.4 °F 33.8 °F 37.4 °F 100% 30.34 in 1.8 mi NNE 4.6 mph - N/A Rain Light Rain
1:55 PM 37.4 °F 33.8 °F 37.4 °F 100% 30.34 in 5.0 mi NE 4.6 mph - 0.01 in   Overcast
2:15 PM 37.4 °F 31.4 °F 37.4 °F 100% 30.33 in 5.0 mi NNE 8.1 mph - N/A   Overcast
2:35 PM 37.4 °F 33.8 °F 37.4 °F 100% 30.32 in 8.0 mi NE 4.6 mph - N/A   Overcast
2:55 PM 37.4 °F 32.1 °F 37.4 °F 100% 30.32 in 10.0 mi NE 6.9 mph - N/A   Overcast
3:15 PM 37.4 °F 32.1 °F 37.4 °F 100% 30.32 in 5.0 mi NE 6.9 mph - N/A   Overcast
3:35 PM 37.4 °F 31.4 °F 37.4 °F 100% 30.32 in 10.0 mi NNE 8.1 mph - N/A   Overcast
3:55 PM 37.4 °F 31.4 °F 37.4 °F 100% 30.32 in 4.0 mi NNE 8.1 mph - N/A   Overcast
4:15 PM 37.4 °F 32.1 °F 37.4 °F 100% 30.32 in 4.0 mi NE 6.9 mph - N/A   Overcast
4:35 PM 37.4 °F 30.3 °F 37.4 °F 100% 30.33 in 4.0 mi NNE 10.4 mph - N/A   Overcast
4:55 PM 37.4 °F 32.1 °F 37.4 °F 100% 30.34 in 7.0 mi NE 6.9 mph - N/A   Overcast
5:15 PM 37.4 °F 32.8 °F 37.4 °F 100% 30.34 in 8.0 mi NE 5.8 mph - N/A   Overcast
5:35 PM 37.4 °F 32.1 °F 37.4 °F 100% 30.33 in 6.0 mi NE 6.9 mph - N/A   Overcast
5:55 PM 37.4 °F 32.1 °F 37.4 °F 100% 30.33 in 3.0 mi NE 6.9 mph - N/A   Overcast
6:15 PM 37.4 °F 33.8 °F 37.4 °F 100% 30.31 in 8.0 mi NE 4.6 mph - N/A   Overcast
6:35 PM 37.4 °F 34.9 °F 37.4 °F 100% 30.31 in 8.0 mi NE 3.5 mph - N/A   Overcast
6:55 PM 35.6 °F - 35.6 °F 100% 30.31 in 5.0 mi Calm Calm - N/A   Overcast
7:15 PM 35.6 °F 31.7 °F 35.6 °F 100% 30.34 in 6.0 mi NE 4.6 mph - N/A   Overcast
7:35 PM 35.6 °F 31.7 °F 35.6 °F 100% 30.34 in 7.0 mi NE 4.6 mph - N/A   Overcast
7:55 PM 35.6 °F 30.7 °F 35.6 °F 100% 30.34 in 6.0 mi NNE 5.8 mph - N/A   Overcast
8:15 PM 35.6 °F 31.7 °F 35.6 °F 100% 30.34 in 3.0 mi NNE 4.6 mph - N/A   Overcast
8:35 PM 35.6 °F 32.8 °F 35.6 °F 100% 30.33 in 2.0 mi NE 3.5 mph - N/A   Overcast
8:55 PM 35.6 °F 30.7 °F 35.6 °F 100% 30.33 in 1.8 mi NE 5.8 mph - N/A   Overcast
9:15 PM 35.6 °F 30.7 °F 35.6 °F 100% 30.33 in 2.0 mi NNE 5.8 mph - N/A Rain Light Rain
9:35 PM 35.6 °F - 35.6 °F 100% 30.33 in 2.5 mi Calm Calm - N/A   Overcast
9:55 PM 35.6 °F - 35.6 °F 100% 30.33 in 1.8 mi Calm Calm - N/A   Overcast
10:15 PM 35.6 °F - 35.6 °F 100% 30.32 in 2.0 mi Calm Calm - N/A   Overcast
10:35 PM 35.6 °F - 35.6 °F 100% 30.32 in 2.5 mi Calm Calm - N/A   Overcast
10:55 PM 35.6 °F 32.8 °F 35.6 °F 100% 30.31 in 7.0 mi NNE 3.5 mph - N/A   Overcast
11:15 PM 35.6 °F 32.8 °F 35.6 °F 100% 30.31 in 7.0 mi NE 3.5 mph - N/A   Overcast
11:35 PM 35.6 °F 31.7 °F 35.6 °F 100% 30.30 in 3.0 mi NNE 4.6 mph - N/A   Overcast
11:55 PM 35.6 °F - 35.6 °F 100% 30.29 in 4.0 mi Calm Calm - N/A   Overcast